Regional Weather Roundup
Issued by NWS

Home | Current Version | Previous Version | Text Only | Print | Product List | Glossary Off
Versions: 1 2 3 4 5 6 7 8 9 10 11 12 13 14 15 16 17 18 19 20 21 22 23 24 25 26 27 28 29 30 31 32 33 34 35 36 37 38 39 40 41 42 43 44 45 46 47 48 49 50

000
ASUS43 KMKX 130400
RWRWI

WISCONSIN REGIONAL WEATHER ROUNDUP
NATIONAL WEATHER SERVICE MILWAUKEE/SULLIVAN WI
1000 PM CST TUE DEC 12 2017

NOTE: "FAIR" INDICATES FEW OR NO CLOUDS BELOW 12,000 FEET WITH NO
SIGNIFICANT WEATHER AND/OR OBSTRUCTIONS TO VISIBILITY.

WIZ001-002-006>008-014>016-023>028-130500-
NORTHWEST WISCONSIN

CITY           SKY/WX    TMP DP  RH WIND       PRES   REMARKS
SUPERIOR ARPT  CLOUDY    15  10  79 SE3       29.78F
ASHLAND        LGT SNOW  13   8  81 SE3       29.80F
HAYWARD        CLOUDY    13   7  77 SE7       29.74F WCI   3
SIREN          CLOUDY    16  11  79 SE8       29.72F WCI   6
CUMBERLAND     CLOUDY    14  10  85 SE10      29.73F WCI   1
RICE LAKE      CLOUDY    15  11  85 SE7       29.76F WCI   5
CHETEK         CLOUDY    14  10  82 SE8       29.77F WCI   3
LADYSMITH      CLOUDY    13   8  80 SE8       29.80F WCI   2
EAU CLAIRE     NOT AVBL
MENOMONIE      CLOUDY    18  13  80 E8        29.78F WCI   7
NEW RICHMOND   CLOUDY    20  14  76 SE8       29.73F WCI  11
OSCEOLA        CLOUDY    21  16  79 SE10      29.75F WCI  10
$$

WIZ003>005-009-010-017-018-130500-
NORTH CENTRAL WISCONSIN

CITY           SKY/WX    TMP DP  RH WIND       PRES   REMARKS
MANITOWISH WTR LGT SNOW   9   6  89 S6        29.77F WCI  -1
ARBOR VITAE    LGT SNOW  11   6  79 S5        29.79S WCI   3
WOODRUFF       LGT SNOW  11   6  79 S5        29.79S WCI   3
RHINELANDER    LGT SNOW  11   5  77 SW7       29.79F WCI   0
EAGLE RIVER    CLOUDY     9   2  73 CALM      29.78F
LAND O LAKES   CLOUDY     8   4  82 CALM      29.79F
PHILLIPS       FLURRIES  10   5  77 S7        29.78F WCI   0
TOMAHAWK       LGT SNOW  10   6  82 CALM      29.81F
MEDFORD        FLURRIES  11   6  79 S7        29.79F WCI   0
MERRILL        LGT SNOW  11   6  79 SW5       29.83F WCI   3
$$

WIZ029-030-035-036-043>047-130500-
CENTRAL WISCONSIN

CITY           SKY/WX    TMP DP  RH WIND       PRES   REMARKS
WAUSAU         LGT SNOW  12   6  77 S7        29.82F WCI   1
MOSINEE        LGT SNOW  12   7  79 S6        29.84F WCI   3
MARSHFIELD     FLURRIES  13   7  77 S6        29.80F WCI   4
STEVENS POINT  LGT SNOW  12   4  68 SW5       29.87F WCI   4
WAUPACA        CLOUDY    17   4  56 SW3       29.91F
WAUTOMA        FLURRIES  15   6  67 S5        29.90F WCI   8
WISC RAPIDS    FLURRIES  15   7  70 S3        29.86F
CAMP DOUGLAS   NOT AVBL
$$

WIZ011>013-019>022-031-037>040-048>050-130500-
NORTHEAST WISCONSIN

CITY           SKY/WX    TMP DP  RH WIND       PRES   REMARKS
ANTIGO         CLOUDY    11   1  66 SW3       29.82F
SHAWANO        CLOUDY    17   3  55 SW3       29.89F
OCONTO         CLOUDY    11   5  79 CALM      29.91F
STURGEON BAY   PTCLDY    15   5  64 W3        29.90F
GREEN BAY      CLOUDY    16   3  56 W5        29.91F WCI   9
MANITOWOC      CLOUDY    14   5  67 W5        29.92F WCI   6
APPLETON       CLOUDY    16   0  48 W3        29.88F
CLINTONVILLE   CLOUDY    16   0  48 W3        29.89F
OSHKOSH        CLOUDY    16   4  59 SW3       29.89F
$$

WIZ032>034-041-042-053>061-130500-
SOUTHWEST WISCONSIN

CITY           SKY/WX    TMP DP  RH WIND       PRES   REMARKS
LA CROSSE      CLOUDY    24  13  62 S10       29.82F WCI  14
SPARTA         CLOUDY    20  12  71 S6        29.86F WCI  13
VIROQUA        CLOUDY    20  12  72 S7        29.84F WCI  11
BOSCOBEL       CLOUDY    26  10  50 SW5       29.89F WCI  20
PRAIRIE DU CHI CLOUDY    26  11  52 S3        29.89F
PLATTEVILLE    CLOUDY    23  13  64 S9        29.90F WCI  13
$$

WIZ056-057-062-063-064-067-068-130500-
SOUTH CENTRAL WISCONSIN

CITY           SKY/WX    TMP DP  RH WIND       PRES   REMARKS
REEDSBURG      FLURRIES  18   9  66 CALM      29.89F
BARABOO/DELLS  FLURRIES  18   9  69 CALM      29.89F
LONE ROCK      CLOUDY    20  12  71 E7        29.90F WCI  11
MINERAL POINT  CLOUDY    25  12  58 S6        29.88F WCI  18
MADISON        FLURRIES  20   9  62 SW5       29.90F WCI  13
MIDDLETON      CLOUDY    21  10  62 CALM      29.92F
WATERTOWN      CLOUDY    17   5  58 SW3       29.92F
MONROE         FLURRIES  23  10  58 SW7       29.90F WCI  15
JANESVILLE     CLOUDY    23   9  54 SW5       29.93F WCI  17
$$

WIZ051-052-058>065-066-070>072-130500-
SOUTHEAST WISCONSIN

CITY           SKY/WX    TMP DP  RH WIND       PRES   REMARKS
MILWAUKEE      CLOUDY    20   2  45 W6        29.92F WCI  12
WAUKESHA       CLOUDY    18   1  49 W3        29.93F
MILWAUKEE/TIMM CLOUDY    18   0  45 W7        29.95F WCI   8
RACINE         MOCLDY    19   3  49 W7        29.95F WCI  10
BURLINGTON       N/A    N/A N/A N/A MISG        N/A
KENOSHA        CLOUDY    19   5  54 CALM      29.94F
FOND DU LAC    CLOUDY    17   4  56 CALM      29.91F
SHEBOYGAN      CLOUDY    16   4  59 CALM      29.91F
WEST BEND      CLOUDY    18   1  49 W6        29.91F WCI   9
JUNEAU         CLOUDY    15   5  65 CALM      29.92F
$$

LSZ147-162-130500-
LAKE SUPERIOR

STATION/POSITION TIME  TEMP    WIND        PRES    WAVE
                       AIR SEA DIR/SP/G            HT/PER
                 (UTC) (F)     (DEG/KT/KT) (MB)    (FT/S)
DEVILS ISLAND    0300   15     180/  7/ 10 1011.4F
SAXON HARBOR     0330   13                 1009.5F
$$

LMZ867-665-643>646-130500-
LAKE MICHIGAN

STATION/POSITION TIME  TEMP    WIND        PRES    WAVE
                       AIR SEA DIR/SP/G            HT/PER
                 (UTC) (F)     (DEG/KT/KT) (MB)    (FT/S)
NORTHPORT PIER   0339   17     320/  5/ 15 1012.2F
KEWAUNEE LAKESHO 0330   14     280/  3/  5 1012.6F
SHEBOYGAN LAKESH 0300   17     300/  9/ 11 1015.5F
PORT WASHINGTON  0330   18     280/  3/  6 1015.2F
MILWAUKEE LAKESH 0330   19     280/  8/ 10   N/A
KENOSHA   LAKESH 0300   19     300/  7/ 12 1014.9
$$

TC  - TEMPERATURE IN CELSIUS
VSB - VISIBILITY IN STATUTE MILES
WCI - WIND CHILL INDEX
HX  - HEAT INDEX





USA.gov is the U.S. government's official web portal to all federal, state and local government web resources and services.